Time,TemperatureF,DewpointF,PressureIn,WindDirection,WindDirectionDegrees,WindSpeedMPH,WindSpeedGustMPH,Humidity,HourlyPrecipIn,Conditions,Clouds,dailyrainin,SolarRadiationWatts/m^2,SoftwareType,DateUTC
2013-02-27 00:01:00,71.0,58.0,-100.00,East,97,2.0,5.0,63,0.00,,,0.00,0.000000,,2013-02-27 10:01:00,
2013-02-27 00:12:00,71.0,58.0,-100.00,East,97,2.0,5.0,63,0.00,,,0.00,0.000000,,2013-02-27 10:12:00,
2013-02-27 00:21:00,71.0,58.0,-100.00,East,97,2.0,5.0,63,0.00,,,0.00,0.000000,,2013-02-27 10:21:00,
2013-02-27 00:42:00,70.0,56.0,-100.00,East,89,2.0,5.0,61,0.00,,,0.00,0.000000,,2013-02-27 10:42:00,
2013-02-27 00:52:00,70.0,56.0,-100.00,East,89,2.0,5.0,61,0.00,,,0.00,0.000000,,2013-02-27 10:52:00,
2013-02-27 01:01:00,70.0,56.0,-100.00,East,89,2.0,5.0,61,0.00,,,0.00,0.000000,,2013-02-27 11:01:00,
2013-02-27 01:11:00,70.0,56.0,-100.00,East,89,2.0,5.0,61,0.00,,,0.00,0.000000,,2013-02-27 11:11:00,
2013-02-27 01:21:00,70.0,56.0,-100.00,East,89,2.0,5.0,61,0.00,,,0.00,0.000000,,2013-02-27 11:21:00,
2013-02-27 01:42:00,70.0,58.0,-100.00,East,85,2.0,4.0,65,0.00,,,0.00,0.000000,,2013-02-27 11:42:00,
2013-02-27 01:52:00,70.0,58.0,-100.00,East,85,2.0,4.0,65,0.00,,,0.00,0.000000,,2013-02-27 11:52:00,
2013-02-27 02:02:00,70.0,58.0,-100.00,East,85,2.0,4.0,65,0.00,,,0.00,0.000000,,2013-02-27 12:02:00,
2013-02-27 02:12:00,70.0,58.0,-100.00,East,85,2.0,4.0,65,0.00,,,0.00,0.000000,,2013-02-27 12:12:00,
2013-02-27 02:21:00,70.0,58.0,-100.00,East,85,2.0,4.0,65,0.00,,,0.00,0.000000,,2013-02-27 12:21:00,
2013-02-27 02:42:00,70.0,58.0,-100.00,East,80,3.0,5.0,65,0.00,,,0.00,0.000000,,2013-02-27 12:42:00,
2013-02-27 02:52:00,70.0,58.0,-100.00,East,80,3.0,5.0,65,0.00,,,0.00,0.000000,,2013-02-27 12:52:00,
2013-02-27 03:02:00,70.0,58.0,-100.00,East,80,3.0,5.0,65,0.00,,,0.00,0.000000,,2013-02-27 13:02:00,
2013-02-27 03:11:00,70.0,58.0,-100.00,East,80,3.0,5.0,65,0.00,,,0.00,0.000000,,2013-02-27 13:11:00,
2013-02-27 03:21:00,70.0,58.0,-100.00,East,80,3.0,5.0,65,0.00,,,0.00,0.000000,,2013-02-27 13:21:00,
2013-02-27 03:42:00,69.0,59.0,-100.00,East,86,2.0,5.0,70,0.00,,,0.00,0.000000,,2013-02-27 13:42:00,
2013-02-27 03:52:00,69.0,59.0,-100.00,East,86,2.0,5.0,70,0.00,,,0.00,0.000000,,2013-02-27 13:52:00,
2013-02-27 04:02:00,69.0,59.0,-100.00,East,86,2.0,5.0,70,0.00,,,0.00,0.000000,,2013-02-27 14:02:00,
2013-02-27 04:11:00,69.0,59.0,-100.00,East,86,2.0,5.0,70,0.00,,,0.00,0.000000,,2013-02-27 14:11:00,
2013-02-27 04:21:00,69.0,59.0,-100.00,East,86,2.0,5.0,70,0.00,,,0.00,0.000000,,2013-02-27 14:21:00,
2013-02-27 04:42:00,69.0,56.0,-100.00,East,88,3.0,6.0,64,0.00,,,0.00,0.000000,,2013-02-27 14:42:00,
2013-02-27 04:52:00,69.0,56.0,-100.00,East,88,3.0,6.0,64,0.00,,,0.00,0.000000,,2013-02-27 14:52:00,
2013-02-27 05:02:00,69.0,56.0,-100.00,East,88,3.0,6.0,64,0.00,,,0.00,0.000000,,2013-02-27 15:02:00,
2013-02-27 05:12:00,69.0,56.0,-100.00,East,88,3.0,6.0,64,0.00,,,0.00,0.000000,,2013-02-27 15:12:00,
2013-02-27 05:21:00,69.0,56.0,-100.00,East,88,3.0,6.0,64,0.00,,,0.00,0.000000,,2013-02-27 15:21:00,
2013-02-27 05:42:00,68.0,55.0,-100.00,East,89,3.0,6.0,64,0.00,,,0.00,0.000000,,2013-02-27 15:42:00,
2013-02-27 05:52:00,68.0,55.0,-100.00,East,89,3.0,6.0,64,0.00,,,0.00,0.000000,,2013-02-27 15:52:00,
2013-02-27 06:01:00,68.0,55.0,-100.00,East,89,3.0,6.0,64,0.00,,,0.00,0.000000,,2013-02-27 16:01:00,
2013-02-27 06:11:00,68.0,55.0,-100.00,East,89,3.0,6.0,64,0.00,,,0.00,0.000000,,2013-02-27 16:11:00,
2013-02-27 06:21:00,68.0,55.0,-100.00,East,89,3.0,6.0,64,0.00,,,0.00,0.000000,,2013-02-27 16:21:00,
2013-02-27 06:42:00,67.0,54.0,-100.00,East,80,3.0,6.0,63,0.00,,,-99.99,0.000000,,2013-02-27 16:42:00,
2013-02-27 06:52:00,67.0,54.0,-100.00,East,80,3.0,6.0,63,0.00,,,-99.99,0.000000,,2013-02-27 16:52:00,
2013-02-27 07:01:00,67.0,54.0,-100.00,East,80,3.0,6.0,63,0.00,,,-99.99,0.000000,,2013-02-27 17:01:00,
2013-02-27 07:11:00,67.0,54.0,-100.00,East,80,3.0,6.0,63,0.00,,,-99.99,0.000000,,2013-02-27 17:11:00,
2013-02-27 07:21:00,67.0,54.0,-100.00,East,80,3.0,6.0,63,0.00,,,-99.99,0.000000,,2013-02-27 17:21:00,
2013-02-27 07:42:00,67.0,54.0,-100.00,East,79,3.0,7.0,63,0.00,,,0.00,2.000000,,2013-02-27 17:42:00,
2013-02-27 07:52:00,67.0,54.0,-100.00,East,79,3.0,7.0,63,0.00,,,0.00,2.000000,,2013-02-27 17:52:00,
2013-02-27 08:01:00,67.0,54.0,-100.00,East,79,3.0,7.0,63,0.00,,,0.00,2.000000,,2013-02-27 18:01:00,
2013-02-27 08:11:00,67.0,54.0,-100.00,East,79,3.0,7.0,63,0.00,,,0.00,2.000000,,2013-02-27 18:11:00,
2013-02-27 08:21:00,67.0,54.0,-100.00,East,79,3.0,7.0,63,0.00,,,0.00,2.000000,,2013-02-27 18:21:00,
2013-02-27 08:42:00,69.0,50.0,-100.00,East,83,4.0,8.0,51,0.00,,,0.00,106.000000,,2013-02-27 18:42:00,
2013-02-27 08:52:00,69.0,50.0,-100.00,East,83,4.0,8.0,51,0.00,,,0.00,106.000000,,2013-02-27 18:52:00,
2013-02-27 09:01:00,69.0,50.0,-100.00,East,83,4.0,8.0,51,0.00,,,0.00,106.000000,,2013-02-27 19:01:00,
2013-02-27 09:11:00,69.0,50.0,-100.00,East,83,4.0,8.0,51,0.00,,,0.00,106.000000,,2013-02-27 19:11:00,
2013-02-27 09:21:00,69.0,50.0,-100.00,East,83,4.0,8.0,51,0.00,,,0.00,106.000000,,2013-02-27 19:21:00,
2013-02-27 09:42:00,76.0,61.0,-100.00,ESE,117,2.0,6.0,60,0.00,,,0.00,322.000000,,2013-02-27 19:42:00,
2013-02-27 09:52:00,76.0,61.0,-100.00,ESE,117,2.0,6.0,60,0.00,,,0.00,322.000000,,2013-02-27 19:52:00,
2013-02-27 10:01:00,76.0,61.0,-100.00,ESE,117,2.0,6.0,60,0.00,,,0.00,322.000000,,2013-02-27 20:01:00,
2013-02-27 10:11:00,76.0,61.0,-100.00,ESE,117,2.0,6.0,60,0.00,,,0.00,322.000000,,2013-02-27 20:11:00,
2013-02-27 10:21:00,76.0,61.0,-100.00,ESE,117,2.0,6.0,60,0.00,,,0.00,322.000000,,2013-02-27 20:21:00,
2013-02-27 10:42:00,76.0,60.0,-100.00,SW,228,3.0,8.0,57,0.00,,,-99.99,535.000000,,2013-02-27 20:42:00,
2013-02-27 10:52:00,76.0,60.0,-100.00,SW,228,3.0,8.0,57,0.00,,,-99.99,535.000000,,2013-02-27 20:52:00,
2013-02-27 11:01:00,76.0,60.0,-100.00,SW,228,3.0,8.0,57,0.00,,,-99.99,535.000000,,2013-02-27 21:01:00,
2013-02-27 11:11:00,76.0,60.0,-100.00,SW,228,3.0,8.0,57,0.00,,,-99.99,535.000000,,2013-02-27 21:11:00,
2013-02-27 11:21:00,76.0,60.0,-100.00,SW,228,3.0,8.0,57,0.00,,,-99.99,535.000000,,2013-02-27 21:21:00,
2013-02-27 11:42:00,78.0,62.0,-100.00,SW,234,3.0,8.0,59,0.00,,,-99.99,725.000000,,2013-02-27 21:42:00,
2013-02-27 11:52:00,78.0,62.0,-100.00,SW,234,3.0,8.0,59,0.00,,,-99.99,725.000000,,2013-02-27 21:52:00,
2013-02-27 12:01:00,78.0,62.0,-100.00,SW,234,3.0,8.0,59,0.00,,,-99.99,725.000000,,2013-02-27 22:01:00,
2013-02-27 12:11:00,78.0,62.0,-100.00,SW,234,3.0,8.0,59,0.00,,,-99.99,725.000000,,2013-02-27 22:11:00,
2013-02-27 12:21:00,78.0,62.0,-100.00,SW,234,3.0,8.0,59,0.00,,,-99.99,725.000000,,2013-02-27 22:21:00,
2013-02-27 12:42:00,78.0,61.0,-100.00,West,266,4.0,9.0,55,0.00,,,0.00,845.000000,,2013-02-27 22:42:00,
2013-02-27 12:52:00,78.0,61.0,-100.00,West,266,4.0,9.0,55,0.00,,,0.00,845.000000,,2013-02-27 22:52:00,
2013-02-27 13:01:00,78.0,61.0,-100.00,West,266,4.0,9.0,55,0.00,,,0.00,845.000000,,2013-02-27 23:01:00,
2013-02-27 13:11:00,78.0,61.0,-100.00,West,266,4.0,9.0,55,0.00,,,0.00,845.000000,,2013-02-27 23:11:00,
2013-02-27 13:21:00,78.0,61.0,-100.00,West,266,4.0,9.0,55,0.00,,,0.00,845.000000,,2013-02-27 23:21:00,
2013-02-27 13:42:00,79.0,61.0,-100.00,West,272,5.0,10.0,54,0.00,,,0.00,896.000000,,2013-02-27 23:42:00,
2013-02-27 13:53:00,79.0,61.0,-100.00,West,272,5.0,10.0,54,0.00,,,0.00,896.000000,,2013-02-27 23:53:00,
2013-02-27 14:01:00,79.0,61.0,-100.00,West,272,5.0,10.0,54,0.00,,,0.00,896.000000,,2013-02-28 00:01:00,
2013-02-27 14:11:00,79.0,61.0,-100.00,West,272,5.0,10.0,54,0.00,,,0.00,896.000000,,2013-02-28 00:11:00,
2013-02-27 14:21:00,79.0,61.0,-100.00,West,272,5.0,10.0,54,0.00,,,0.00,896.000000,,2013-02-28 00:21:00,
2013-02-27 14:42:00,80.0,62.0,-100.00,West,272,5.0,10.0,54,0.00,,,0.00,862.000000,,2013-02-28 00:42:00,
2013-02-27 14:52:00,80.0,62.0,-100.00,West,272,5.0,10.0,54,0.00,,,0.00,862.000000,,2013-02-28 00:52:00,
2013-02-27 15:01:00,80.0,62.0,-100.00,West,272,5.0,10.0,54,0.00,,,0.00,862.000000,,2013-02-28 01:01:00,
2013-02-27 15:11:00,80.0,62.0,-100.00,West,272,5.0,10.0,54,0.00,,,0.00,862.000000,,2013-02-28 01:11:00,
2013-02-27 15:21:00,80.0,62.0,-100.00,West,272,5.0,10.0,54,0.00,,,0.00,862.000000,,2013-02-28 01:21:00,
2013-02-27 15:42:00,80.0,61.0,-100.00,West,269,5.0,12.0,53,0.00,,,0.00,766.000000,,2013-02-28 01:42:00,
2013-02-27 15:52:00,80.0,61.0,-100.00,West,269,5.0,12.0,53,0.00,,,0.00,766.000000,,2013-02-28 01:52:00,
2013-02-27 16:01:00,80.0,61.0,-100.00,West,269,5.0,12.0,53,0.00,,,0.00,766.000000,,2013-02-28 02:01:00,
2013-02-27 16:11:00,80.0,61.0,-100.00,West,269,5.0,12.0,53,0.00,,,0.00,766.000000,,2013-02-28 02:11:00,
2013-02-27 16:21:00,80.0,61.0,-100.00,West,269,5.0,12.0,53,0.00,,,0.00,766.000000,,2013-02-28 02:21:00,
2013-02-27 17:01:00,79.0,62.0,-100.00,West,271,5.0,11.0,56,0.00,,,0.00,552.000000,,2013-02-28 03:01:00,
2013-02-27 17:11:00,79.0,62.0,-100.00,West,271,5.0,11.0,56,0.00,,,0.00,552.000000,,2013-02-28 03:11:00,
2013-02-27 17:21:00,79.0,62.0,-100.00,West,271,5.0,11.0,56,0.00,,,0.00,552.000000,,2013-02-28 03:21:00,
2013-02-27 17:42:00,79.0,62.0,-100.00,West,269,4.0,8.0,57,0.00,,,0.00,397.000000,,2013-02-28 03:42:00,
2013-02-27 17:52:00,79.0,62.0,-100.00,West,269,4.0,8.0,57,0.00,,,0.00,397.000000,,2013-02-28 03:52:00,
2013-02-27 18:01:00,79.0,62.0,-100.00,West,269,4.0,8.0,57,0.00,,,0.00,397.000000,,2013-02-28 04:01:00,
2013-02-27 18:11:00,79.0,62.0,-100.00,West,269,4.0,8.0,57,0.00,,,0.00,397.000000,,2013-02-28 04:11:00,
2013-02-27 18:21:00,79.0,62.0,-100.00,West,269,4.0,8.0,57,0.00,,,0.00,397.000000,,2013-02-28 04:21:00,
2013-02-27 18:22:00,77.0,63.0,-100.00,West,268,3.0,8.0,61,0.00,,,0.00,169.000000,,2013-02-28 04:22:00,
2013-02-27 18:42:00,77.0,63.0,-100.00,West,268,3.0,8.0,61,0.00,,,0.00,169.000000,,2013-02-28 04:42:00,
2013-02-27 18:52:00,77.0,63.0,-100.00,West,268,3.0,8.0,61,0.00,,,0.00,169.000000,,2013-02-28 04:52:00,
2013-02-27 19:01:00,77.0,63.0,-100.00,West,268,3.0,8.0,61,0.00,,,0.00,169.000000,,2013-02-28 05:01:00,
2013-02-27 19:11:00,77.0,63.0,-100.00,West,268,3.0,8.0,61,0.00,,,0.00,169.000000,,2013-02-28 05:11:00,
2013-02-27 19:43:00,74.0,61.0,-100.00,WNW,292,2.0,6.0,63,0.00,,,0.00,16.000000,,2013-02-28 05:43:00,
2013-02-27 19:52:00,74.0,61.0,-100.00,WNW,292,2.0,6.0,63,0.00,,,0.00,16.000000,,2013-02-28 05:52:00,
2013-02-27 20:01:00,74.0,61.0,-100.00,WNW,292,2.0,6.0,63,0.00,,,0.00,16.000000,,2013-02-28 06:01:00,
2013-02-27 20:11:00,74.0,61.0,-100.00,WNW,292,2.0,6.0,63,0.00,,,0.00,16.000000,,2013-02-28 06:11:00,
2013-02-27 20:21:00,74.0,61.0,-100.00,WNW,292,2.0,6.0,63,0.00,,,0.00,16.000000,,2013-02-28 06:21:00,
2013-02-27 20:42:00,73.0,61.0,-100.00,WNW,299,1.0,3.0,65,0.00,,,0.00,0.000000,,2013-02-28 06:42:00,
2013-02-27 20:52:00,73.0,61.0,-100.00,WNW,299,1.0,3.0,65,0.00,,,0.00,0.000000,,2013-02-28 06:52:00,
2013-02-27 21:01:00,73.0,61.0,-100.00,WNW,299,1.0,3.0,65,0.00,,,0.00,0.000000,,2013-02-28 07:01:00,
2013-02-27 21:11:00,73.0,61.0,-100.00,WNW,299,1.0,3.0,65,0.00,,,0.00,0.000000,,2013-02-28 07:11:00,
2013-02-27 21:21:00,73.0,61.0,-100.00,WNW,299,1.0,3.0,65,0.00,,,0.00,0.000000,,2013-02-28 07:21:00,
2013-02-27 21:42:00,73.0,61.0,-100.00,ENE,65,2.0,4.0,67,0.00,,,0.00,0.000000,,2013-02-28 07:42:00,
2013-02-27 21:52:00,73.0,61.0,-100.00,ENE,65,2.0,4.0,67,0.00,,,0.00,0.000000,,2013-02-28 07:52:00,
2013-02-27 22:01:00,73.0,61.0,-100.00,ENE,65,2.0,4.0,67,0.00,,,0.00,0.000000,,2013-02-28 08:01:00,
2013-02-27 22:11:00,73.0,61.0,-100.00,ENE,65,2.0,4.0,67,0.00,,,0.00,0.000000,,2013-02-28 08:11:00,
2013-02-27 22:21:00,73.0,61.0,-100.00,ENE,65,2.0,4.0,67,0.00,,,0.00,0.000000,,2013-02-28 08:21:00,
2013-02-27 22:42:00,71.0,57.0,-100.00,East,82,2.0,5.0,62,0.00,,,0.00,0.000000,,2013-02-28 08:42:00,
2013-02-27 22:53:00,71.0,57.0,-100.00,East,82,2.0,5.0,62,0.00,,,0.00,0.000000,,2013-02-28 08:53:00,
2013-02-27 23:03:00,71.0,57.0,-100.00,East,82,2.0,5.0,62,0.00,,,0.00,0.000000,,2013-02-28 09:03:00,
2013-02-27 23:11:00,71.0,57.0,-100.00,East,82,2.0,5.0,62,0.00,,,0.00,0.000000,,2013-02-28 09:11:00,
2013-02-27 23:21:00,71.0,57.0,-100.00,East,82,2.0,5.0,62,0.00,,,0.00,0.000000,,2013-02-28 09:21:00,
2013-02-27 23:42:00,69.0,55.0,-100.00,East,84,3.0,7.0,60,0.00,,,0.00,0.000000,,2013-02-28 09:42:00,
2013-02-27 23:52:00,69.0,55.0,-100.00,East,84,3.0,7.0,60,0.00,,,0.00,0.000000,,2013-02-28 09:52:00,